Location: Unspecified
(27.8108°N, 0.0000°E)
Time: 01:12:16
(UTC+00:00)

DIWATA 2B (PO-101) - Visible Passes

Search period start: 04 April 2026 00:00
Search period end: 14 April 2026 00:00
Orbit: 557 x 576 km, 98.1° (Epoch: 29 March)

Date Brightness Start Highest point End Pass type
(mag) Time Alt. Az. Time Alt. Az. Time Alt. Az.
4 Apr ? 05:00:21 10° ESE 05:02:28 14° ENE 05:04:36 10° NE visible
5 Apr ? 05:01:05 10° ESE 05:03:15 14° ENE 05:05:26 10° NE visible
6 Apr ? 05:01:49 10° ESE 05:04:03 15° ENE 05:06:16 10° NE visible
7 Apr ? 05:02:34 10° ESE 05:04:49 15° ENE 05:07:06 10° NE visible
8 Apr ? 05:03:18 10° ESE 05:05:36 15° ENE 05:07:55 10° NE visible
9 Apr ? 05:04:01 10° ESE 05:06:22 15° ENE 05:08:44 10° NE visible
10 Apr ? 05:04:45 10° ESE 05:07:08 16° ENE 05:09:31 10° NNE visible
11 Apr ? 05:05:28 10° ESE 05:07:54 16° ENE 05:10:20 10° NNE visible
12 Apr ? 05:06:11 10° ESE 05:08:40 16° ENE 05:11:08 10° NNE visible
13 Apr ? 05:06:54 10° ESE 05:09:24 16° ENE 05:11:56 10° NNE visible
